Race Results for
Sacramento Grand Prix
San Francisco, CA
(Event Information)
View By:
Criterium on 05/16/2010

Note: Ranking points are NOT upgrade points. An explanation of ranking points can be found here.


Men - Pro/Cat 1/2

 Place Points NameCity, StateTime USAC #BibTeam
1146.19Justin Williams (1 - Pro)   Los Angeles00:55:08.90 197316  170 Trel Livestrong U23
2Ryan PARNES   00:55:09.30  21 Yahoo! Cycling Team
3150.88Brian Bosch   Fresno, CA00:55:09.40 40703  22 Yahoo! Cycling Team
4153.23Bryan Larsen   Dana Point, CA00:55:09.50 195204  50 Wells Fargo Racing Team
5155.58Jeremiah Wiscovitch   Covina, CA00:55:09.50 188908  39 Williams Cycling p/b SC Velo
6157.92Cody Stevenson   La Mesa, CA00:55:09.60 273268  Adageo Energy Pro Cycling
7160.27Sterling Magnell (1 - Cat1)   Santa Rosa, CA00:55:09.80 120588  56 McGuire Cycling Team
8162.62Andrew Kennedy   Martinez, CA00:55:09.90 257276  90 Hybrid EP Cycling
9164.96Robert Scheffler   Alamo, CA00:55:10.40 239048  54 Wells Fargo Racing Team
10167.31Dean LaBerge   Napa, CA00:55:10.50 67041  135 Team Specialized Racing
11Adam CARR   00:55:10.60  10 Adageo Energy Pro Cycling
12172.01James LaBerge   Napa, CA00:55:10.70 221376  134 Team Specialized Racing
13174.35Tyler Brandt   Vallejo, CA00:55:10.80 210604  160 California Giant Berry Farms/S
14176.70Kyle Gritters   Corona, CA00:55:11.10 188578  34 Williams Cycling p/b SC Velo
15179.05Christopher Baumann   Sacramento, CA00:55:11.30 53271  114 
16181.39Randy Bramblett   San Francisco, CA00:55:11.40 187194  55 McGuire Cycling Team
17183.74Dana Williams   Mill Valley, CA00:55:11.50 295988  20 Fusion Sport USA
18186.09Brandon Trafton   Sacramento, CA00:55:11.50 240033  159 California Giant Berry Farms/S
19188.44Jeffrey Galland   Paradise, CA00:55:11.60 127804  96 CHICO CORSA/SIERRA NEVADA
20190.78Judd Van Sickle   Sacramento, CA00:55:11.70 127052  105 Rocknasium
21193.13Jeremy Ferguson   Rocklin, CA00:55:12.30 222762  88 Hybrid EP Cycling
22195.48Dylan Clark (1 - Cat2)   Auburn, CA00:55:12.50 243069  46 Safeway/ Bicycles Plus
23197.82John Bergmann   Albany, CA00:55:12.70 187522  126 Team Clif Bar
24200.17Robert Evans   Scotts Valley, CA00:55:13.00 72893  166 IAS / RH Villa / Montano Velo
25202.52Mitchell Trux   San Francisco, CA00:55:13.00 153684  70 Metromint Cycling
26204.87Nicholas Oliver   El Dorado Hills, CA00:55:13.40 271541  52 Wells Fargo Racing Team
27207.21Aaron Gallardo   Woodland Hills Ca00:55:13.50 160366  85 Team Helen's
28209.56Nathan Freed   Tahoe City, CA00:55:13.80 86484  127 Team Clif Bar
29211.91Hendrik Pohl   San Francisco, CA00:55:14.10 207753  19 Fusion Sport USA
30214.25Ryan Ramos   Berkeley, CA00:55:14.20 139348  169 IAS / RH Villa / Montano Velo
31216.60Michael Jasinski   Rocklin, CA00:55:14.30 269476  98 Chico Corsa
32218.95Joe Iannarelli   Vacaville, CA00:55:14.50 195783  128 TEAM CLIF BAR Cycling
33221.30Charlie Schneider   Petaluma, CA00:55:14.50 245542  81 Team NorCal Bike Sport
34223.64Alton Dunnigan   Pleasant Hill, CA00:55:15.30 157044  ALA Cycling p/b Lombardi Sport
35225.99Mark Shimahara   Ventura, CA00:55:15.60 32481  132 TEAM CLIF BAR Cycling
36228.34Darren Basso   Belmont, CA00:55:15.80 130973  ALA Cycling p/b Lombardi Sport
37230.68Sean McBride   Oakland, CA00:55:16.20 190591  ALA Cycling p/b Lombardi Sport
38233.03Nathaniel Deibler (2 - Cat1)   Brea00:55:16.30 172567  32 Williams Cycling p/b SC Velo
39235.38Mark Fairman   San Francisco, CA00:55:16.40 270120  65 Metromint Cycling
40237.73Nathan Erickson   San Luis Obispo, CA00:55:16.80 63004  14 ArtsCyclery.com/Wild Horse Win
41240.07Andrew Goessling   Richmond, CA00:55:17.50 207262  ALA Cycling p/b Lombardi Sport
42242.42Richard Bradley   Sacramento, CA00:55:17.80 223944  73 Morgan Stanley Smith Barney/Sp
43244.77Andrew Lancashire   Elk Grove, CA00:55:17.90 218734  99 Kinetic Cycles/GBI
44247.11Christopher Baker   Sacramento, CA00:55:17.90 47424  72 Morgan Stanley Smith Barney/Sp
45249.46Chad DeMasi   Davis, CA00:55:18.50 158049  101 Rocknasium
46251.81Michael Jacques   Portola Valley, CA00:55:18.70 72022  129 TEAM CLIF BAR Cycling
47UNKNOWN RIDER   00:55:18.90  168 -------
48256.50Alex Holtz   Sacramento, CA00:55:18.90 61440  75 Morgan Stanley Smith Barney/Sp
49258.85Adam Ross   Folsom, CA00:55:19.20 167796  53 Wells Fargo Racing Team
50261.20Connor Spencer   San Francisco, CA00:55:19.20 256539  68 Metromint Cycling
51263.54Keith Hock   Napa, CA00:55:19.50 16369  74 Morgan Stanley Smith Barney/Sp
52265.89Erick Pierce   Oakland, CA00:55:19.60 209459  60 Los Gatos
53268.24Matthew Obregon (3 - Cat1)   Folsom, CA00:55:19.70 232613  110 Team Bicycles Plus/Sierra Neva
54270.59Robert Dahl   Oakland, CA00:55:19.70 218381  64 Metromint Cycling
55272.93Robin VanValkenburgh   Yuba City, CA00:55:19.70 62349  106 Rocknasium
56275.28Ethan Atkins   San Francisco, CA00:55:19.70 224998  63 Metromint Cycling
57277.63Dave Kause (2 - Cat2)   Sacramento, CA00:55:19.80 175157  123 Shriners/Quick Step Cycling Te
58279.97Jose Soltren   Menlo Park, CA00:55:20.00 197227  61 Los Gatos
59282.32Gregory Anderson   Vacaville, CA00:55:20.10 90802  71 Morgan Stanley Smith Barney/Sp
60284.67Michael Egan   West Sacrametno, CA00:55:20.10 124893  115 Sacramento Golden Wheelmen
61287.02Jenson Lee (3 - Cat2)   Saratoga, CA00:55:20.30 212393  48 Wells Fargo Racing Team
62289.36Paul Penn   Hayward, CA00:55:20.40 57836  51 wells fargo team
63291.71Travis T   San Francisco, CA00:55:20.50 158451  69 Metromint Cycling
64294.06Sean Rhea (4 - Cat1)   San Francisco, CA00:55:20.60 178535  67 Metromint Cycling
65296.40Marcus Smith   Pleasanton, CA00:55:20.70 209193  138 Team Specialized Racing
66298.75Steve Showler   Carmichael, CA00:55:20.80 32554  104 Rocknasium
67301.10Ariel Herrmann   San Francisco, CA00:55:20.80 163046  66 Metromint Cycling
68Westley GOUGH   00:55:20.90  42 
69305.79Neil Bartley   San Jose, CA00:55:21.20 209268  77 Berkeley Bicycle Club (BBC)
70308.14Christopher Phipps   San Francisco, CA00:55:21.90 233623  76 Morgan Stanley Smith Barney/Sp
71310.49Colby Elliot   San Diego , CA00:55:21.90 203446  180 Bike Religion
72312.83Matthew Ream   Verdi, NV00:55:22.30 211441  100 Kinetic Cycles / GBI
73315.18Joel Robertson   San Leandro, CA00:55:24.20 220316  45 Webcor/Alto Velo
74317.53Keith Hillier   Millbrae, CA00:55:24.80 276108  141 Davis Bike Club
75319.88Mark Deterline   Salt Lake City, UT00:55:24.90 43613  47 Wells Fargo Racing Team
76322.22John McKone   Park City, UT00:55:25.50 23665  124 Team Northwave
77UNKNOWN RIDER   00:55:26.20  161 -------
78326.92Jonathan Lee   Santa Rosa, CA00:55:26.70 217858  78 Team NorCal Bike Sport
79329.26Ken Gallardo   Belmont, CA00:55:26.70 255453  148 Peninsula Velo/Pomodoro
80331.61Murray Swanson   Woodside, CA00:55:27.00 206144  150 Peninsula Velo/Pomodoro
81333.96James Bender   Seattle, WA00:55:27.40 122052  151 Berkeley Bicycle Club (BBC)
82336.31Brian Hawley   Sacramento, CA00:55:27.60 187713  116 
83338.65Michael Brown   Gold River, CA00:55:28.30 141483  95 Kinetic Cycles/GBI
84341.00Peter Brown   Santa Barbara, CA00:55:28.90 118988  83 Team Clover
85343.35Troy White   Sacramento, CA00:55:31.10 38024  120 
86345.69Aaron Beardsley   Berkeley, CA00:55:31.60 188253  125 Clif Bar Cycling
87348.04Steve Ghorley (4 - Cat2)   Fair Oaks, CA00:55:31.70 53441  122 shriners/quickstep cycling tea
88350.39Jesse Moore   Sacramento, CA00:55:32.10 204739  158 California Giant Berry Farms/S
90352.74Brandon Gritters   Mission Viejo, CA00:55:32.30 207755  35 Williams Cycling p/b SC Velo
91355.08David Passmore   San Carlos, CA00:55:32.90 27378  155 Berkeley Bicycle Club (BBC)
92357.43Jens Hillen   Orinda, CA00:55:33.70 226525  152 Berkeley Bicycle Club (BBC)
93359.78Chris Stastny   Vacaville, CA00:55:33.70 249743  156 California Giant Berry Farms/S
94362.12Zachary Wick (5 - Cat2)   Davis, CA00:55:33.90 200743  146 Davis Bike Club
95364.47Michael Tymoff (6 - Cat2)   San Francisco, CA00:55:34.00 207589  ALA Cycling p/b Lombardi Sport
96366.82Rand Miller (5 - Cat1)   San Francisco, CA00:55:34.00 182990  44 Webcor/Alto Velo
97369.17Blake Reed   Grover Beach, CA00:55:34.00 29369  18 ArtsCyclery.com/Wild Horse Win
98371.51Dillon Clapp   Stevenson Ranch, CA00:55:34.10 6973  12 ArtsCyclery.com/Wild Horse Win
99373.86Todd Hennings   Kenwood, CA00:55:34.50 15835  89 Hybrid EP Cycling
100376.21Paul Sumner   San Anselmo, CA00:55:34.80 47616  87 Divine Electric NorCal
101378.55David Washburn   Sacramento, CA00:55:34.90 178982  119 
102380.90Matthew Rozek   Folsom, CA00:55:34.90 154826  111 Team Bicycles Plus/Sierra Neva
103383.25Myron Dong (7 - Cat2)   Folsom, CA00:55:35.30 56134  108 Team Bicycles Plus/Sierra Neva
104385.60Craig Roemer   Petaluma, CA00:55:36.10 80925  137 Team Specialized Racing
105387.94John Hancock   Sacramento, CA00:55:36.70 195844  112 Team Bicycles Plus/Sierra Neva
106390.29Darin Divine   Mill Valley, CA00:55:37.50 97504  84 Divine Electric Norcal
107392.64Joshua Webster   San Dimas, CA00:55:38.60 37522  38 Williams Cycling p/b SC Velo
108394.98Jason King   Napa, CA00:55:39.70 211026  142 Davis Bike Club
109397.33Bubba Melcher   Reno, NV00:55:39.80 23961  86 Team Clover
110399.68Robert Newman   Los Gatos, CA00:55:39.90 53327  36 Williams Cycling p/b SC Velo
111402.03Andres Gil   Stockton, CA00:55:40.00 171882  33 Williams Cycling p/b SC Velo
112404.37Doran Mori   Oakland, CA00:55:40.40 196267  130 TEAM CLIF BAR Cycling
113406.72David Benkoski   Menlo Park, CA00:55:40.60 271685  133 Team Specialized Racing
114409.07Christopher Carey (8 - Cat2)   San Francisco, CA00:55:42.80 195433  ALA Cycling p/b Lombardi Sport
115411.41Jason Brown   Lodi, CA00:55:45.80 53115  94 Kinetic Cycles/GBI
116413.76Stephen Pelaez   San Francisco, CA00:55:47.10 64481  58 GS Lombardi Sports
117416.11Patrick Briggs   Oakland, CA00:55:48.70 4838  23 Yahoo! Cycling Team
118418.46Evan Huffman   El Dorado Hills, CA00:55:50.50 256955  26 Yahoo! Cycling Team
119420.80John Wilk   Oakland, CA00:55:52.30 199951  172 Yahoo Cycling Team
120423.15Chris Turner   Los Altos, CA00:55:54.40 253101  62 Los Gatos
121425.50Christopher Lyman (6 - Cat1)   Napa, CA00:55:55.10 267171  136 Team Specialized Racing
122427.84Peter Taylor (9 - Cat2)   Walnut Creek, CA00:55:55.20 219859  139 Team Specialized Racing
123430.19Peter Nicholson   Mill Valley00:55:59.50 219558  79 Whole Athlete/ NorCal Bike Spo
124432.54Michael Hernandez   Oakland, CA00:56:02.90 136641  97 Kinetic Cycles/GBI
125434.89Sergei Badeka   Palo Alto, CA00:56:03.10 118797  59 McGuire Cycling Team
126437.23David McCook   Tampa Fl00:56:04.80 66627  57 McGuire Cycling Team
127439.58Peter Knudsen   Sacramento, CA00:56:05.60 97881  49 Beer
128441.93Matthew Carinio   San Luis Obispo, CA00:56:09.30 6109  13 ArtsCyclery.com/Wild Horse Win
129444.27Charles Alexander (10 - Cat2)   Sacramento, CA00:56:28.00 206466  140 Davis Bike Club
130446.62Alexander Wick (11 - Cat2)   Davis, CA00:56:28.10 196337  147 Davis Bike Club
131448.97Tyler Dibble   Oakland, CA00:56:38.60 205861  25 Yahoo! Cycling Team
132451.32Dirk Copeland   Santa Clara, CA00:56:38.60 52843  24 Yahoo! Cycling Team
133453.66David Albrecht   Chico, CA00:57:01.70 47091  93 Chico Corsa Cycling Team
DNSMorgan Ryan   Ventura, CA 177959  31 BAHATI PRO CYCLING
DNSChristopher McGovern   Nevada City, CA 23487  91 Hybrid EP Cycling
DNSChad Gerlach (Cat1)   West Sacramento, CA 50138  107 Team Bicycles Plus/Sierra Neva
DNSCharles Hutcheson   Sacramento, CA 54686  117 Battley Harley Davidson
DNSDylan Seguin   Boise, ID 44296  131 TEAM CLIF BAR Cycling
DNSRoman Kilun   Oakland, CA 153790  171 Ouch pb Maxxis
DNPPeter Graf   Sacramento, CA 218511  ALA Cycling p/b Lombardi Sport
DNPSam Bassetti   San Geronimo, CA 237712  ALA Cycling p/b Lombardi Sport
DNPTimothy Farnham   San Francisco, CA 198206  11 Adageo Energy Pro Cycling
DNPAaron Gomez   San Luis Obispo, CA 257426  15 ArtsCyclery.com/Wild Horse Win
DNPMiles LaMon   San Luis Obispo, CA 187271  16 ArtsCyclery.com/Wild Horse Win
DNPCraig Nunes   San Luis Obispo, CA 178453  17 ArtsCyclery.com/Wild Horse Win
DNPPhilip Mooney (Cat1)   San Rafael , CA 206962  27 Yahoo! Cycling Team
DNPAdam Switters   Citrus Heights, CA 127093  28 Yahoo! Cycling Team
DNPRahsaan Bahati   Compton 116625  29 Bahati Foundation Pro Cycling
DNPDevan Dunn   Newport Beach, CA 287721  30 Liquid Fitness/Adageo Energy
DNPJoshua Carling   Rancho Cordova, CA 234584  37 Williams Cycling p/b SC Velo
DNPFabrice DUBOST (Cat1)   Menlo Park, CA 280966  40 Webcor/Alto Velo
DNPJustin Fraga   San Francisco, CA 145583  41 Webcor/Alto Velo
DNPTim Granshaw (Cat1)   Redwood City, CA 55803  43 Sierra Pacific Racing Team
DNPDavid Pouncy   Piedmont, CA 248071  80 Berkeley Bicycle Club (BBC)
DNPBrian Staby   Saint Helena, CA 215179  82 Team NorCal Bike Sport
DNPJustin Morgan (Cat1)   Portola Valley, CA 25053  92 Hybrid EP Cycling
DNPStephen McCaw   Sacramento, CA 62322  102 Rocknasium
DNPDaniel Prater   Davis, CA 28612  103 Rocknasium
DNPMike Korn (Cat2)   Sacramento, CA 144359  109 Team Bicycles Plus/Sierra Neva
DNPGerald Roberts   Sacramento, CA 30073  113 Team Bicycles Plus/Sierra Neva
DNPBlaise Maher (Cat2)   Sacramento, CA 57537  118 Sacramento Golden Wheelmen
DNPTodd Cirata   Lincoln, CA 159572  121 Carina Homes
DNPFrank Marrs   Atlanta, GA 272691  143 Davis Bike Club
DNPJonathan Teeter   Guerneville, CA 291414  144 Davis Bike Club
DNPGregory White   Lafayette, CA 246669  145 Davis Bike Club
DNPFrank Spiteri   San Mateo, CA 236118  149 Peninsula Velo/Pomodoro
DNPKeith Jordon   Hayward, CA 254515  153 Berkeley Bicycle Club (BBC)
DNPK Benjamin Knipe   Berkeley, CA 231656  154 Berkeley Bicycle Club (BBC)
DNPKeith Miller   Los Gatos, CA 53753  157 California Giant Berry Farms/S
DNPElliot Jaramillo   Burlingame, CA 179930  167 IAS / RH Villa / Montano Velo
DNPOsvaldo Olmos (Cat1)   San Luis Obispo, CA 172541  179 California Giant Berry Farms/S

Women - Pro/Cat 1/2

 Place Points NameCity, StateTime USAC #BibTeam
1162.16Coryn Rivera   Tustin, CA00:58:02.00 207432  Peanut Butter & Co.TWENTY12
2Modesta VZESNIAUSKAITE   00:58:02.30  32 Colavita/Baci Pro Cycling Team
3Joelle NUMAINVILLE   00:58:02.30  17 
4Lauren TAMAYO   00:58:02.40  Peanut Butter & Co.TWENTY12
5178.63Meredith Miller   Boulder, CO00:58:02.50 143575  Team TIBCO
6182.75Nichole Wangsgard   Cedar City, UT00:58:02.50 100972  28 Colavita Sutter Home P/B Cooki
7186.87Devon Haskell   Logan, UT00:58:02.60 210903  Team TIBCO / To The Top
8190.99Katerina Nash   Truckee, CA00:58:02.70 188603  24 Luna Pro Team
9195.11Kendall Ryan   Ventura, CA00:58:02.70 186919  71 
10199.23Starla Teddergreen (1 - Cat2)   Portland, OR00:58:02.80 202033  35 Vanderkitten p/b Kenda
11203.35Melissa Sanborn (1 - Cat1)   Portland, OR00:58:02.80 166502  27 CyclePath Racing
12207.46Kori Seehafer   Eau Claire Wi00:58:02.90 77841  23 Team Type 1
13211.58Cari Higgins   Boulder, CO00:58:03.00 225441  Peanut Butter & Co.TWENTY12
14215.70Erica Allar   Tucson, AZ00:58:03.00 174914  11 Team Vera Bradley Foundation
15219.82Jade Wilcoxson   Talent, OR00:58:03.30 255887  33 Flywheel Bicycle Solutions
16223.94Olivia Dillon   Fairfax, CA00:58:03.80 232172  Peanut Butter & Co.TWENTY12
17228.06Jennifer Wilson (2 - Cat1)   Van Nuys, CA00:58:03.80 210833  37 Vanderkitten Racing
18232.17Erika Graves   Los Angeles, CA00:58:03.90 223920  74 Herbalife Lagrange
19236.29Vanessa Drigo   Charlotte, NC00:58:04.00 257356  43 Touchstone Climbing
20240.41Julie Bellerose   Pasadena, CA00:58:04.20 230896  61 Metromint Cycling
21244.53Jane Robertson   Davis, CA00:58:04.50 218607  66 Metromint Cycling
22248.65Jacquelyn Crowell   Alpharetta, GA00:58:04.50 185441  21 Team Type 1
23252.77Kristin Drumm   Novato, CA00:58:04.50 661  72 Unattached
24256.89Emily Kachorek (3 - Cat1)   Sacramento, CA00:58:04.70 167636  18 Wells Fargo Racing Team
25261.00Julia Lafranchise   Los Angeles, CA00:58:04.70 221181  69 
26265.12Megan Guarnier   Mountain View, CA00:58:04.80 210981  
27269.24Tyler Stewart (4 - Cat1)   Novato, CA00:58:04.80 305786  26 LUNA PRO TEAM
28273.36Mary Elizabeth Maroon   Sacramento, CA00:58:04.90 219555  45 Touchstone Climbing
29277.48Martina Patella   Oakland, CA00:58:05.00 195334  53 Third Pillar
30281.60Kimberly Anderson   Santa Barbara, CA00:58:05.00 33201  73 HTC Columbia
31285.72Karla Kingsley   Kensington, CA00:58:05.00 219191  50 Third Pillar
32289.83Amanda Seigle   Citrus Heights, CA00:58:05.00 203755  67 Metromint Cycling
33293.95Lauren Hecht   Mountain View, CA00:58:05.20 261693  38 Webcor/Alto Velo
34298.07Lisa Turnbull   Springfield, OR00:58:05.20 243750  34 Riverstone
35302.19Elizabeth Newell   Oakland, CA00:58:05.20 252152  20 MRBerkeley.com p/b Bell Lap
36306.31Cody Graf (2 - Cat2)   Sacramento, CA00:58:05.30 248416  19 Wells Fargo Racing Team
37310.43Heather Pryor (3 - Cat2)   Sacramento, CA00:58:05.40 289752  47 Touchstone Climbing
38314.55Carol Irving   Woodland, CA00:58:05.50 17419  44 Touchstone Climbing
39Andrea GRAUS   00:58:05.70  15 
40322.78Kimberly White   Grand Junction, CO00:58:06.10 209678  56 Dolce Vita Cycling
41326.90Maura Kinsella   Boulder, CO00:58:06.10 289951  39 Webcor/Alto Velo
42Ange MCCLURE   00:58:06.20  40 
43335.14Beverly Chaney   Carmel, CA00:58:06.70 221127  77 Team Roaring Mouse
44339.26Nicole Dolney (4 - Cat2)   Sacramento, CA00:58:06.70 287219  42 Touchstone Climbing
45343.37Amy Dombroski   Boulder, CO00:58:06.90 246803  25 Luna Pro Team
46347.49Samantha Taylor (5 - Cat2)   San Francisco, CA00:58:07.30 235763  59 Los Gatos
47351.61Rae Brownsberger   San Francisco, CA00:58:07.80 256152  62 Metromint Cycling
48355.73Jennifer Reither (5 - Cat1)   Boulder , CO00:58:07.80 146585  36 Vanderkitten Racing
49359.85Amber Neben   Lake Forest, CA00:58:08.30 116712  14 
50363.97Ryan Hostetter   San Luis Obispo, CA00:58:08.80 191767  64 Metromint Cycling
51368.09Yukie Nakamura (6 - Cat2)   Los Altos, CA00:58:09.20 179928  65 Metromint Cycling
52372.20Brianna Hand (7 - Cat2)   Oakland, CA00:58:10.10 218318  63 Metromint Cycling
53376.32Stacy Sims   Menlo Park, CA00:58:10.40 261429  54 
54380.44Lindsay Myers   Loma Linda, CA00:58:10.60 272063  16 Webcor Builders Cycling Team
55384.56Lauren Liscinski   Los Angeles, CA00:58:10.70 221896  70 NOW-MS
56388.68Jenna Kowalski   Los Angeles, CA00:58:10.90 234400  68 NOW-MS Society
57392.80Emily Matheu   Oakland, CA00:58:11.20 277109  52 Team Roaring Mouse
58396.92Kelly McDonald (6 - Cat1)   Davis, CA00:58:11.30 202178  46 Touchstone Climbing
59401.03Morgan Patton   Athens, GA00:58:11.60 257696  22 Team Type 1
60405.15Linsey Bradshaw-Sandoval (8 - Cat2)   Los Alamos, NM00:58:11.60 237609  49 Treads.com/DFT
61409.27Jessica Phillips   Aspen, CO00:58:13.10 142591  31 Colavita/Baci Pro Cycling team
62413.39Kristina Seley   San Luis Obispo, CA00:58:13.50 223809  48 Touchstone Climbing
63417.51Robin Farina   Smartsville, CA00:58:18.50 205968  12 Team Vera Bradley Foundation
64421.63Jennifer Van Muckey   Campbell, CA00:58:21.10 207585  60 Los Gatos
65425.75Elis Bradshaw   Oakland, CA00:58:21.10 208125  41 Touchstone Climbing
66Rushlee BUCHANAN   00:58:22.50  29 Colavita/Baci Pro Cycling Team
67433.98Alison Starnes   Mill Valley, CA00:58:26.40 266806  10 Team TIBCO
68Alexis RHODES   00:58:26.50  13 Team Vera Bradley Foundation
69442.22Ruth Winder (9 - Cat2)   Lafayette, CA00:58:32.10 273081  Peanut Butter & Co.TWENTY12
DNSLaura Van Gilder   Cresco, PA00:00:00.00 36345  55 Mellow Mushroom
DNSHeather Nielson   Seattle, WA00:00:00.00 237346  75 
DNSMarissa Axell   El Cerrito, CA00:00:00.00 269569  76 Touchstone Climbing
DNPSinead Miller (Cat1)   Pittsburgh, PA 171289  Peanut Butter & Co.TWENTY12
DNPCatherine CHEATLEY     30 Colavita/Baci Pro Cycling Team
DNPCharlotte Hart   Merced, CA 237583  51 Third Pillar
DNPMary Ellen Ash   Menlo Park, CA00:00:00.00 254874  57 SugarCRM
DNPAnne Fulton   Palo Alto, CA00:00:00.00 275624  58 Los Gatos

Report missing or incorrect license numbers

Volkswagen
ShimanoBonk BreakerSpySierra NevadaUSACDF
UCI USA Cycling is the official governing body for all disciplines of competitive cycling in the United States. The 501c3, membership-based organization aims both to achieve sustained success in international cycling competition and to grow competitive cycling in America while delivering an exceptional customer experience.
View Children's Online Privacy Protection Policy
US Olympic Committee